Fort Indiantown Gap, PA

7:06 AM EDT on September 26, 2017 (GMT -0400)
Muir Army Air Field

Weather History for KMUI - November, 2012

Change the Weather History Date:

Tuesday, November 6, 2012

  Actual Average Record
Temperature  
Mean Temperature 35 °F -  
Max Temperature 42 °F 53 °F 75 °F (2015)
Min Temperature 28 °F 37 °F 24 °F (2011)
Degree Days  
Heating Degree Days 30    
Moisture  
Dew Point 23 °F    
Average Humidity 62    
Maximum Humidity 84    
Minimum Humidity 45    
Precipitation  
Precipitation 0.00 in - - ()
Sea Level Pressure  
Sea Level Pressure 30.16 in    
Wind  
Wind Speed 3 mph (East)    
Max Wind Speed 7 mph    
Max Gust Speed -    
Visibility 10 miles    
Events      
Averages and records for this station are not official NWS values.
T = Trace of Precipitation, MM = Missing Value Source: NWS Daily Summary

Daily Weather History Graph

Daily Weather History Graph

Search for Another Location

Airport or City:

Trip Planner

Search our weather history database for the weather conditions in past years. The results will help you decide how hot, cold, wet, or windy it might be!

Date:

Astronomy

Nov. 06, 2012 Rise Set
Actual Time 6:42 AM EST 4:56 PM EST
Civil Twilight 6:13 AM EST 5:25 PM EST
Nautical Twilight 5:41 AM EST 5:57 PM EST
Astronomical Twilight 5:09 AM EST 6:29 PM EST
Moon 11:33 PM EST (11/6) 12:33 PM EST (11/6)
Length of Visible Light 11h 11m
Length of Day
10h 14m
Waning Gibbous, 53% of the Moon is Illuminated
Nov 6
Waning Gibbous
Nov 6
Last Quarter
Nov 13
New
Nov 20
First Quarter
Nov 28
Full

Hourly Weather History & Observations

Time (EST) Temp. Windchill Dew Point Humidity Pressure Visibility Wind Dir Wind Speed Gust Speed Precip Events Conditions
12:55 AM 36.5 °F 33.9 °F 23.0 °F 58% 30.19 in 10.0 mi North 3.5 mph - N/A   Overcast
1:55 AM 36.0 °F 33.3 °F 21.7 °F 56% 30.20 in 10.0 mi NNE 3.5 mph - N/A   Overcast
2:55 AM 34.3 °F 29.2 °F 21.6 °F 60% 30.19 in 10.0 mi NE 5.8 mph - N/A   Overcast
3:55 AM 31.6 °F - 20.5 °F 63% 30.19 in 10.0 mi Calm Calm - N/A   Scattered Clouds
4:55 AM 28.4 °F - 21.6 °F 76% 30.21 in 10.0 mi Calm Calm - N/A   Mostly Cloudy
5:55 AM 29.5 °F - 22.8 °F 76% 30.21 in 10.0 mi Calm Calm - N/A   Overcast
6:55 AM 28.8 °F - 24.6 °F 84% 30.22 in 10.0 mi Calm Calm - N/A   Overcast
7:55 AM 29.3 °F - 23.5 °F 79% 30.24 in 10.0 mi Calm Calm - N/A   Clear
8:55 AM 35.2 °F 32.4 °F 20.8 °F 56% 30.24 in 10.0 mi East 3.5 mph - N/A   Clear
9:55 AM 37.6 °F 32.3 °F 18.7 °F 47% 30.24 in 10.0 mi East 6.9 mph - N/A   Clear
10:55 AM 38.7 °F 35.2 °F 18.9 °F 45% 30.23 in 10.0 mi East 4.6 mph - N/A   Clear
11:55 AM 39.4 °F 35.2 °F 19.9 °F 46% 30.20 in 10.0 mi Variable 5.8 mph - N/A   Clear
12:55 PM 40.6 °F 38.6 °F 20.5 °F 45% 30.17 in 10.0 mi Variable 3.5 mph - N/A   Clear
1:55 PM 41.9 °F 38.2 °F 21.7 °F 45% 30.14 in 10.0 mi Variable 5.8 mph - N/A   Clear
2:55 PM 42.1 °F 39.2 °F 22.3 °F 45% 30.13 in 10.0 mi SSE 4.6 mph - N/A   Clear
3:55 PM 41.0 °F 39.0 °F 23.2 °F 49% 30.12 in 10.0 mi ESE 3.5 mph - N/A   Clear
4:55 PM 38.8 °F 35.4 °F 23.4 °F 54% 30.12 in 10.0 mi ESE 4.6 mph - N/A   Clear
5:55 PM 33.8 °F - 25.3 °F 71% 30.13 in 10.0 mi Calm Calm - N/A   Scattered Clouds
6:55 PM 34.0 °F - 26.1 °F 73% 30.12 in 10.0 mi Calm Calm - N/A   Mostly Cloudy
7:55 PM 33.3 °F - 25.0 °F 72% 30.10 in 10.0 mi Calm Calm - N/A   Clear
8:55 PM 33.6 °F - 24.1 °F 68% 30.09 in 10.0 mi Calm Calm - N/A   Clear
9:55 PM 31.8 °F - 25.3 °F 77% 30.10 in 10.0 mi Calm Calm - N/A   Overcast
10:55 PM 32.5 °F - 27.3 °F 81% 30.09 in 10.0 mi Calm Calm - N/A   Overcast
11:55 PM 34.5 °F 30.4 °F 23.9 °F 65% 30.07 in 10.0 mi NNE 4.6 mph - N/A   Mostly Cloudy